This is the latest recevied weather packets stored in our database for station/object IT9IJI-13. If no packets are shown the sender has not sent any weather packets the latest 10 day(s).
| Time | Temp. | Humidity | Pressure | Rain* | Wind** | Luminosity | Snow |
|---|---|---|---|---|---|---|---|
| 1778137863 | 23.33° C | 50% | 1012.7 hPa | 0 mm | - | 0 W/m² | - |
| 1778137803 | 23.33° C | 51% | 1012.8 hPa | 0 mm | - | 0 W/m² | - |
| 1778137743 | 23.33° C | 51% | 1012.8 hPa | 0 mm | - | 0 W/m² | - |
| 1778137683 | 0° C | 51% | 1012.7 hPa | 0 mm | - | 0 W/m² | - |
| 1778137623 | 22.78° C | 53% | 1012.9 hPa | 0 mm | - | 0 W/m² | - |
| 1778137563 | 22.78° C | 54% | 1012.9 hPa | 0 mm | - | 0 W/m² | - |
| 1778137503 | 22.78° C | 55% | 1012.8 hPa | 0 mm | - | 0 W/m² | - |
| 1778137443 | 22.22° C | 56% | 1012.9 hPa | 0 mm | - | 0 W/m² | - |
| 1778137383 | 22.22° C | 56% | 1012.9 hPa | 0 mm | - | 0 W/m² | - |
| 1778137323 | 22.22° C | 56% | 1012.8 hPa | 0 mm | - | 0 W/m² | - |
| 1778137263 | 21.67° C | 58% | 1012.8 hPa | 0 mm | - | 0 W/m² | - |
| 1778137203 | 21.67° C | 60% | 1012.9 hPa | 0 mm | - | 0 W/m² | - |
| 1778137143 | 21.67° C | 61% | 1012.8 hPa | 0 mm | - | 0 W/m² | - |
| 1778137083 | 21.11° C | 64% | 1012.9 hPa | 0 mm | - | 0 W/m² | - |
| 1778137023 | 21.11° C | 65% | 1012.9 hPa | 0 mm | - | 0 W/m² | - |
| 1778136963 | 21.11° C | 66% | 1013 hPa | 0 mm | - | 0 W/m² | - |
| 1778136903 | 20.56° C | 66% | 1013 hPa | 0 mm | - | 0 W/m² | - |
| 1778136843 | 20.56° C | 67% | 1013.1 hPa | 0 mm | - | 0 W/m² | - |
| 1778136783 | 20.56° C | 67% | 1013.1 hPa | 0 mm | - | 0 W/m² | - |
| 1778136723 | 20° C | 68% | 1013.3 hPa | 0 mm | - | 0 W/m² | - |
| 1778136663 | 20° C | 68% | 1013.3 hPa | 0 mm | - | 0 W/m² | - |
| 1778136603 | 20° C | 68% | 1013.1 hPa | 0 mm | - | 0 W/m² | - |
| 1778136543 | 20° C | 68% | 1013.2 hPa | 0 mm | - | 0 W/m² | - |
| 1778136483 | 19.44° C | 68% | 1013.2 hPa | 0 mm | - | 0 W/m² | - |
| 1778136423 | 19.44° C | 68% | 1013.1 hPa | 0 mm | - | 0 W/m² | - |
* Rain latest hour (hover to see other rain measurements)
** Current wind speed in m/s (hover to see current wind gust speed)